User: anonymous   Login
Location: Caltech
(34.1382°N, 118.1253°W)
Time: 03:35:04
(UTC-07:00)
Language:

Cosmos 44 Rocket - Orbit

View from above orbital plane
View from above orbital plane
View from above satellite
View from above satellite

Ground track
Ground track

The orbit data is extracted from the following two-line orbital elements,

1   877U 64053B   17175.58614917 -.00000093 +00000-0 +55731-5 0  9991
2   877 065.0786 270.7364 0050483 113.8082 246.8321 14.59296261802605
Epoch (UTC): 24 June 2017 14:04:03
Eccentricity: 0.0050483
inclination: 65.0786°
perigee height: 660 km
apogee height: 731 km
right ascension of ascending node: 270.7364°
argument of perigee: 113.8082°
revolutions per day: 14.59296261
mean anomaly at epoch: 246.8321°
orbit number at epoch: 80260

The dashed part of the orbit path shows where the satellite is in the earth's shadow,  

DLR